Texas General Land Office
 Texas General Land Office
 George P. Bush, Commissioner

 Oil Spill Prevention
 & Response

Texas Automated Buoy System
Real Time Ocean Observations
Supporting Oil Spill Prevention and
Response since 1995
Geochemical and Environmental Research Group

TABS Buoy D -- Texas Automated Buoy System

TABS Buoy D Conditions at 05/18/2019 04:30 UTC (05/17/2019 23:30 CDT)
27° 56.3760'N   96° 50.5740'W
AA3900 DCS - sensor depth 2m
Water Depth: 60 feet (18 meters)
Speed: 19.26 cm/s (0.37 kts) Direction: 52 °T (NE) Water Temp: 25°C (77 °F)
System Voltage: 12.4 V Signal Strength: -11.6 dB Ping Count: 136
  


IMPORTANT: Notice to Mariners


Today's Velocity Data (download)

   Date   |  Time  |   East |   North|   Speed|  Dir | WaterT |
          |  (UTC) |  (cm/s)|  (cm/s)|  (cm/s)| (°T) |  (°C)  |
==========+========+========+========+========+======+========+
05/16/2019 22:00:00   -10.34    20.91    23.33  333.7   25.4
05/16/2019 22:30:00   -12.25    19.07    22.67  327.3   25.4
05/16/2019 23:00:00   -13.33    19.81    23.88  326.1   25.4
05/16/2019 23:30:00   -14.64    20.31    25.04  324.2   25.4
05/17/2019 00:00:00   -13.33    17.35    21.88  322.5   25.3
05/17/2019 00:30:00   -12.70    18.55    22.48  325.6   25.3
05/17/2019 01:00:00   -10.40    17.97    20.76  329.9   25.2
05/17/2019 01:30:00   -10.34    15.28    18.45  325.9   25.1
05/17/2019 02:00:00   -10.66    14.55    18.04  323.8   25.1
05/17/2019 02:30:00    -5.19    10.31    11.54  333.3   25.0
05/17/2019 03:00:00    -7.13     8.43    11.04  319.8   24.9
05/17/2019 03:30:00    -3.88     8.62     9.45  335.8   24.9
05/17/2019 04:00:00    -2.94     5.73     6.44  332.8   24.9
05/17/2019 04:30:00     0.36     1.66     1.70   12.2   24.9
05/17/2019 05:00:00     1.96     5.25     5.60   20.5   24.9
05/17/2019 05:30:00     3.87     1.93     4.32   63.5   24.9
05/17/2019 06:00:00     8.27    -0.51     8.29   93.5   24.9
05/17/2019 06:30:00     7.78     2.83     8.28   70.0   24.9
05/17/2019 07:00:00     5.48     3.59     6.55   56.8   24.9
05/17/2019 07:30:00     9.40     4.16    10.28   66.1   24.9
05/17/2019 08:00:00     8.71     2.67     9.11   73.0   24.9
05/17/2019 08:30:00    11.13    -2.76    11.47  103.9   24.9
05/17/2019 09:00:00    15.11     2.32    15.29   81.3   24.9
05/17/2019 09:30:00    15.77     4.49    16.40   74.1   24.9
05/17/2019 10:00:00    17.70     1.34    17.75   85.7   24.9
05/17/2019 10:30:00    13.23    11.41    17.47   49.2   24.9
05/17/2019 11:00:00     9.89    11.61    15.25   40.4   24.8
05/17/2019 11:30:00    12.34    10.89    16.46   48.6   24.8
05/17/2019 12:00:00    14.53    13.63    19.92   46.8   24.8
05/17/2019 12:30:00    12.95    12.46    17.97   46.1   24.8
05/17/2019 13:00:00    15.65    12.40    19.97   51.6   24.8
05/17/2019 13:30:00    17.06    13.01    21.45   52.7   24.8
05/17/2019 14:00:00    19.27    10.56    21.97   61.3   24.8
05/17/2019 14:30:00    22.68    14.72    27.04   57.0   24.9
05/17/2019 15:00:00    19.46    18.42    26.80   46.6   24.9
05/17/2019 15:30:00    12.80    23.97    27.17   28.1   24.9
05/17/2019 16:00:00    13.68    24.51    28.07   29.2   24.9
05/17/2019 16:30:00    12.89    23.53    26.83   28.7   25.0
05/17/2019 17:00:00    15.26    22.18    26.92   34.5   25.0
05/17/2019 17:30:00    10.14    22.53    24.71   24.2   25.1
05/17/2019 18:00:00    11.95    25.23    27.92   25.3   25.1
05/17/2019 18:30:00    12.87    22.92    26.29   29.3   25.2
05/17/2019 19:00:00    18.56    17.75    25.68   46.3   25.2
05/17/2019 19:30:00    19.02    18.18    26.31   46.3   25.2
05/17/2019 20:00:00    21.67    15.34    26.55   54.7   25.2
05/17/2019 20:30:00    22.25    10.29    24.51   65.2   25.3
05/17/2019 21:00:00    22.81    10.36    25.05   65.6   25.4
05/17/2019 21:30:00    23.11     8.21    24.53   70.4   25.4
05/17/2019 22:00:00    23.98     7.19    25.03   73.3   25.3
05/17/2019 22:30:00    22.73     3.28    22.97   81.8   25.4
05/17/2019 23:00:00    23.32    10.85    25.72   65.0   25.5
05/17/2019 23:30:00    18.70    11.00    21.70   59.5   25.4
05/18/2019 00:00:00    12.91    11.37    17.20   48.6   25.4
05/18/2019 00:30:00    11.69    12.83    17.36   42.3   25.4
05/18/2019 01:00:00    13.63     9.55    16.64   55.0   25.2
05/18/2019 01:30:00    12.57     7.06    14.42   60.7   25.1
05/18/2019 02:00:00    12.93     8.91    15.70   55.4   25.1
05/18/2019 02:30:00    13.86     7.39    15.71   61.9   25.0
05/18/2019 03:00:00    14.82    10.31    18.05   55.2   25.0
05/18/2019 03:30:00    12.22    10.71    16.25   48.8   25.0
05/18/2019 04:00:00    14.02     9.61    17.00   55.6   25.0
05/18/2019 04:30:00    15.22    11.80    19.26   52.2   25.1



       
 

Today's Temperature - Salinity Data     (Download)


   Date   |  Time  |   Temp |   Cond |Salinity| Density|SoundVel|
          |  (UTC) |   (°C) | (ms/cm)|        | kg/m^3 |  (m/s) |
==========+========+========+========+========+========+========+
05/16/2019 22:00:00    26.07     3.19    19.38     0.00     0.00
05/16/2019 22:30:00    26.08     3.18    19.37     0.00     0.00
05/16/2019 23:00:00    26.12     3.18    19.34     0.00     0.00
05/16/2019 23:30:00    26.07     3.18    19.36     0.00     0.00
05/17/2019 00:00:00    26.03     3.18    19.37     0.00     0.00
05/17/2019 00:30:00    25.96     3.17    19.36     0.00     0.00
05/17/2019 01:00:00    25.92     3.18    19.39     0.00     0.00
05/17/2019 01:30:00    25.84     3.17    19.38     0.00     0.00
05/17/2019 02:00:00    25.74     3.18    19.47     0.00     0.00
05/17/2019 02:30:00    25.68     3.19    19.57     0.00     0.00
05/17/2019 03:00:00    25.68     3.18    19.49     0.00     0.00
05/17/2019 03:30:00    25.66     3.19    19.56     0.00     0.00
05/17/2019 04:00:00    25.64     3.19    19.61     0.00     0.00
05/17/2019 04:30:00    25.63     3.20    19.66     0.00     0.00
05/17/2019 05:00:00    25.62     3.20    19.68     0.00     0.00
05/17/2019 05:30:00    25.64     3.21    19.72     0.00     0.00
05/17/2019 06:00:00    25.66     3.22    19.77     0.00     0.00
05/17/2019 06:30:00    25.65     3.22    19.79     0.00     0.00
05/17/2019 07:00:00    25.63     3.22    19.81     0.00     0.00
05/17/2019 07:30:00    25.65     3.23    19.85     0.00     0.00
05/17/2019 08:00:00    25.65     3.23    19.88     0.00     0.00
05/17/2019 08:30:00    25.66     3.24    19.95     0.00     0.00
05/17/2019 09:00:00    25.66     3.25    19.99     0.00     0.00
05/17/2019 09:30:00    25.62     3.25    20.03     0.00     0.00
05/17/2019 10:00:00    25.62     3.26    20.07     0.00     0.00
05/17/2019 10:30:00    25.55     3.24    19.99     0.00     0.00
05/17/2019 11:00:00    25.52     3.23    19.93     0.00     0.00
05/17/2019 11:30:00    25.51     3.24    19.96     0.00     0.00
05/17/2019 12:00:00    25.50     3.24    19.99     0.00     0.00
05/17/2019 12:30:00    25.50     3.23    19.95     0.00     0.00
05/17/2019 13:00:00    25.52     3.24    19.97     0.00     0.00
05/17/2019 13:30:00    25.53     3.24    19.99     0.00     0.00
05/17/2019 14:00:00    25.55     3.25    20.02     0.00     0.00
05/17/2019 14:30:00    25.55     3.23    19.91     0.00     0.00
05/17/2019 15:00:00    25.57     3.20    19.70     0.00     0.00
05/17/2019 15:30:00    25.61     3.17    19.50     0.00     0.00
05/17/2019 16:00:00    25.64     3.18    19.50     0.00     0.00
05/17/2019 16:30:00    25.68     3.18    19.48     0.00     0.00
05/17/2019 17:00:00    25.74     3.18    19.50     0.00     0.00
05/17/2019 17:30:00    25.82     3.18    19.45     0.00     0.00
05/17/2019 18:00:00    25.88     3.18    19.44     0.00     0.00
05/17/2019 18:30:00    25.93     3.19    19.46     0.00     0.00
05/17/2019 19:00:00    25.99     3.19    19.45     0.00     0.00
05/17/2019 19:30:00    25.96     3.20    19.51     0.00     0.00
05/17/2019 20:00:00    25.97     3.21    19.58     0.00     0.00
05/17/2019 20:30:00    25.97     3.22    19.67     0.00     0.00
05/17/2019 21:00:00    26.07     3.24    19.74     0.00     0.00
05/17/2019 21:30:00    26.11     3.25    19.80     0.00     0.00
05/17/2019 22:00:00    26.04     3.25    19.83     0.00     0.00
05/17/2019 22:30:00    26.18     3.26    19.86     0.00     0.00
05/17/2019 23:00:00    26.21     3.23    19.61     0.00     0.00
05/17/2019 23:30:00    26.15     3.22    19.55     0.00     0.00
05/18/2019 00:00:00    26.13     3.21    19.54     0.00     0.00
05/18/2019 00:30:00    26.07     3.21    19.52     0.00     0.00
05/18/2019 01:00:00    25.89     3.19    19.49     0.00     0.00
05/18/2019 01:30:00    25.82     3.19    19.51     0.00     0.00
05/18/2019 02:00:00    25.82     3.18    19.47     0.00     0.00
05/18/2019 02:30:00    25.75     3.18    19.50     0.00     0.00
05/18/2019 03:00:00    25.74     3.17    19.44     0.00     0.00
05/18/2019 03:00:00    25.74     3.17    19.44     0.00     0.00
05/18/2019 03:30:00    25.76     3.18    19.47     0.00     0.00
05/18/2019 04:00:00    25.76     3.18    19.50     0.00     0.00
05/18/2019 04:30:00    25.76     3.19    19.55     0.00     0.00